Home > Weather > Langenthal > Past weeks

Flag for Switzerland Weather for the Past 2 Weeks in Langenthal, Bern, Switzerland

Now
37 °F

Chilly.


Feels Like: 30 °F
Forecast: 31 / 42 °F
Wind: 10 mph from West

Location: Wynau

Current Time: Feb 10, 2016 at 4:41:25 PM

Latest Report: Feb 10, 2016 at 4:00 PM


Visibility: N/A

Pressure: 29.68 "Hg

Humidity: 72%

Dew point: 29 °F

Location of LangenthalLocation

Historic Weather in Langenthal — Graph

°F

Langenthal Temperature Yesterday

Maximum temperature yesterday: 49 °F (at 12:00 PM)
Minimum temperature yesterday: 35 °F (at 11:00 PM)
Average temperature yesterday: 45 °F

High & Low Weather Summary for the Past Weeks

 TemperatureHumidityPressure
High56 °F (Feb 1, 3:00 PM)100% (Jan 27, 3:00 AM)30.53 "Hg (Jan 27, 3:00 AM)
Low29 °F (Jan 27, 4:00 AM)45% (Jan 30, 3:00 PM)29.35 "Hg (Feb 9, 6:00 PM)
Average42 °F86%30.16 "Hg
* Reported Jan 26 3:00 PM — Feb 10 3:00 PM, Langenthal, Weather by CustomWeather, © 2016

Note: Actual official high and low records may vary slightly from our data, if they occured in-between our weather recording intervals... More about our weather records

Advertising

Langenthal Weather History for the Previous 24 Hours

 ConditionsComfort  
Time TempWeatherWind HumidityBarometerVisibility
3:00 PM
Wed, Feb 10
38 °FChilly.10 mph72%29.67 "HgN/A
2:00 PM39 °FChilly.15 mph66%29.65 "HgN/A
1:00 PM40 °FQuite cool.13 mph66%29.65 "HgN/A
12:00 PM37 °FChilly.9 mph77%29.67 "HgN/A
11:00 AM36 °FChilly.9 mph80%29.67 "HgN/A
10:00 AM35 °FChilly.8 mph82%29.66 "HgN/A
9:00 AM34 °FChilly.5 mph87%29.65 "HgN/A
8:00 AM34 °FChilly.7 mph88%29.63 "HgN/A
7:00 AM33 °FChilly.8 mph95%29.61 "HgN/A
6:00 AM33 °FChilly.8 mph96%29.59 "HgN/A
4:00 AM34 °FChilly.9 mph91%29.56 "HgN/A
3:00 AM37 °FChilly.15 mph71%29.54 "HgN/A
12:00 AM36 °FChilly.6 mph85%29.50 "HgN/A
11:00 PM
Tue, Feb 9
35 °FChilly.8 mph95%29.54 "HgN/A
10:00 PM42 °FQuite cool.16 mph70%29.47 "HgN/A
9:00 PM42 °FQuite cool.8 mph76%29.44 "HgN/A
8:00 PM40 °FQuite cool.5 mph88%29.44 "HgN/A
7:00 PM41 °FQuite cool.20 mph88%29.41 "HgN/A
6:00 PM46 °FCool.10 mph86%29.35 "HgN/A
4:00 PM47 °FCool.9 mph89%29.38 "HgN/A
Weather by CustomWeather, © 2016

See weather overviewHow to use our weather pages